Time,TemperatureF,DewpointF,PressureIn,WindDirection,WindDirectionDegrees,WindSpeedMPH,WindSpeedGustMPH,Humidity,HourlyPrecipIn,Conditions,Clouds,dailyrainin,SoftwareType,DateUTC
2013-01-24 00:00:00,9.1,-6.0,30.14,NW,315,5.6,10.0,49,0.00,,,0.00,Rainwise IP-100,2013-01-24 05:00:00,
2013-01-24 00:05:00,8.9,-6.0,30.14,NW,315,2.8,8.6,49,0.00,,,0.00,Rainwise IP-100,2013-01-24 05:05:00,
2013-01-24 00:07:00,8.8,-6.0,30.14,NW,315,1.4,8.6,49,0.00,,,0.00,Rainwise IP-100,2013-01-24 05:07:00,
2013-01-24 00:12:00,8.7,-6.0,30.13,WNW,292,3.5,11.4,48,0.00,,,0.00,Rainwise IP-100,2013-01-24 05:12:00,
2013-01-24 00:17:00,8.7,-6.0,30.14,WNW,292,12.8,12.8,48,0.00,,,0.00,Rainwise IP-100,2013-01-24 05:17:00,
2013-01-24 00:22:00,8.8,-6.0,30.13,WNW,292,9.3,14.9,48,0.00,,,0.00,Rainwise IP-100,2013-01-24 05:22:00,
2013-01-24 00:27:00,8.8,-6.0,30.14,NW,315,3.3,14.0,48,0.00,,,0.00,Rainwise IP-100,2013-01-24 05:27:00,
2013-01-24 00:32:00,8.7,-6.0,30.13,WNW,292,4.7,11.9,48,0.00,,,0.00,Rainwise IP-100,2013-01-24 05:32:00,
2013-01-24 00:37:00,8.7,-6.0,30.13,WSW,247,3.5,12.6,47,0.00,,,0.00,Rainwise IP-100,2013-01-24 05:37:00,
2013-01-24 00:42:00,8.8,-6.0,30.13,WNW,292,4.2,15.9,47,0.00,,,0.00,Rainwise IP-100,2013-01-24 05:42:00,
2013-01-24 00:47:00,8.8,-6.0,30.13,NW,315,4.9,12.4,47,0.00,,,0.00,Rainwise IP-100,2013-01-24 05:47:00,
2013-01-24 00:52:00,8.6,-6.0,30.13,WNW,292,6.5,12.4,48,0.00,,,0.00,Rainwise IP-100,2013-01-24 05:52:00,
2013-01-24 00:57:00,8.6,-6.0,30.13,WNW,292,8.2,9.8,48,0.00,,,0.00,Rainwise IP-100,2013-01-24 05:57:00,
2013-01-24 01:02:00,8.6,-6.0,30.13,WNW,292,7.5,14.7,48,0.00,,,0.00,Rainwise IP-100,2013-01-24 06:02:00,
2013-01-24 01:07:00,8.6,-6.0,30.13,NNW,337,13.5,14.7,48,0.00,,,0.00,Rainwise IP-100,2013-01-24 06:07:00,
2013-01-24 01:12:00,8.6,-6.0,30.13,NW,315,7.5,13.5,48,0.00,,,0.00,Rainwise IP-100,2013-01-24 06:12:00,
2013-01-24 01:17:00,8.6,-6.0,30.13,WNW,292,8.6,13.1,48,0.00,,,0.00,Rainwise IP-100,2013-01-24 06:17:00,
2013-01-24 01:22:00,8.5,-6.0,30.13,WNW,292,7.0,14.2,48,0.00,,,0.00,Rainwise IP-100,2013-01-24 06:22:00,
2013-01-24 01:27:00,8.5,-6.0,30.12,WNW,292,5.6,15.9,48,0.00,,,0.00,Rainwise IP-100,2013-01-24 06:27:00,
2013-01-24 01:32:00,8.6,-6.0,30.14,NW,315,13.5,18.0,48,0.00,,,0.00,Rainwise IP-100,2013-01-24 06:32:00,
2013-01-24 01:37:00,8.6,-6.0,30.13,NNW,337,9.8,14.2,49,0.00,,,0.00,Rainwise IP-100,2013-01-24 06:37:00,
2013-01-24 01:42:00,8.5,-6.0,30.14,WNW,292,8.6,14.2,48,0.00,,,0.00,Rainwise IP-100,2013-01-24 06:42:00,
2013-01-24 01:47:00,8.4,-6.0,30.13,NW,315,6.3,14.7,49,0.00,,,0.00,Rainwise IP-100,2013-01-24 06:47:00,
2013-01-24 01:52:00,8.3,-6.0,30.13,WNW,292,3.3,11.7,49,0.00,,,0.00,Rainwise IP-100,2013-01-24 06:52:00,
2013-01-24 01:58:00,8.3,-6.0,30.14,NW,315,5.6,13.3,50,0.00,,,0.00,Rainwise IP-100,2013-01-24 06:58:00,
2013-01-24 02:03:00,8.3,-6.0,30.13,WNW,292,8.4,11.9,51,0.00,,,0.00,Rainwise IP-100,2013-01-24 07:03:00,
2013-01-24 02:08:00,8.2,-6.0,30.14,NW,315,9.1,14.2,51,0.00,,,0.00,Rainwise IP-100,2013-01-24 07:08:00,
2013-01-24 02:13:00,8.1,-6.0,30.13,NW,315,9.8,12.1,51,0.00,,,0.00,Rainwise IP-100,2013-01-24 07:13:00,
2013-01-24 02:18:00,8.0,-6.0,30.14,WNW,292,17.7,18.0,51,0.00,,,0.00,Rainwise IP-100,2013-01-24 07:18:00,
2013-01-24 02:23:00,8.0,-6.0,30.13,NNW,337,10.5,17.7,51,0.00,,,0.00,Rainwise IP-100,2013-01-24 07:23:00,
2013-01-24 02:28:00,8.1,-6.0,30.13,NW,315,5.1,13.3,51,0.00,,,0.00,Rainwise IP-100,2013-01-24 07:28:00,
2013-01-24 02:33:00,8.0,-6.0,30.13,WNW,292,2.3,9.3,51,0.00,,,0.00,Rainwise IP-100,2013-01-24 07:33:00,
2013-01-24 02:38:00,7.8,-6.0,30.13,WNW,292,8.2,14.5,51,0.00,,,0.00,Rainwise IP-100,2013-01-24 07:38:00,
2013-01-24 02:43:00,7.9,-6.0,30.13,NNW,337,8.6,11.2,51,0.00,,,0.00,Rainwise IP-100,2013-01-24 07:43:00,
2013-01-24 02:48:00,7.9,-6.0,30.12,WNW,292,3.3,11.4,51,0.00,,,0.00,Rainwise IP-100,2013-01-24 07:48:00,
2013-01-24 02:53:00,7.7,-6.0,30.12,WNW,292,7.0,14.7,51,0.00,,,0.00,Rainwise IP-100,2013-01-24 07:53:00,
2013-01-24 02:58:00,7.8,-6.0,30.12,NW,315,8.9,15.2,50,0.00,,,0.00,Rainwise IP-100,2013-01-24 07:58:00,
2013-01-24 03:03:00,7.8,-6.0,30.13,NW,315,5.6,12.8,50,0.00,,,0.00,Rainwise IP-100,2013-01-24 08:03:00,
2013-01-24 03:08:00,7.8,-6.0,30.12,WNW,292,8.4,12.6,51,0.00,,,0.00,Rainwise IP-100,2013-01-24 08:08:00,
2013-01-24 03:13:00,7.7,-6.0,30.12,NW,315,6.5,11.7,51,0.00,,,0.00,Rainwise IP-100,2013-01-24 08:13:00,
2013-01-24 03:18:00,7.6,-6.0,30.12,WNW,292,7.9,11.2,51,0.00,,,0.00,Rainwise IP-100,2013-01-24 08:18:00,
2013-01-24 03:23:00,7.6,-6.0,30.12,WNW,292,5.8,10.0,52,0.00,,,0.00,Rainwise IP-100,2013-01-24 08:23:00,
2013-01-24 03:28:00,7.6,-6.0,30.12,NNW,337,1.6,11.9,52,0.00,,,0.00,Rainwise IP-100,2013-01-24 08:28:00,
2013-01-24 03:33:00,7.5,-6.0,30.11,NW,315,8.6,12.1,53,0.00,,,0.00,Rainwise IP-100,2013-01-24 08:33:00,
2013-01-24 03:38:00,7.5,-6.0,30.12,WNW,292,10.3,13.1,53,0.00,,,0.00,Rainwise IP-100,2013-01-24 08:38:00,
2013-01-24 03:43:00,7.7,-6.0,30.11,WNW,292,7.9,12.6,52,0.00,,,0.00,Rainwise IP-100,2013-01-24 08:43:00,
2013-01-24 03:48:00,7.8,-6.0,30.12,WNW,292,5.4,14.5,52,0.00,,,0.00,Rainwise IP-100,2013-01-24 08:48:00,
2013-01-24 03:53:00,7.8,-6.0,30.11,WNW,292,6.8,20.3,52,0.00,,,0.00,Rainwise IP-100,2013-01-24 08:53:00,
2013-01-24 03:58:00,7.9,-6.0,30.11,WNW,292,7.5,18.4,52,0.00,,,0.00,Rainwise IP-100,2013-01-24 08:58:00,
2013-01-24 04:03:00,7.8,-6.0,30.11,WNW,292,7.2,16.6,52,0.00,,,0.00,Rainwise IP-100,2013-01-24 09:03:00,
2013-01-24 04:08:00,7.7,-6.0,30.11,NNW,337,10.0,13.3,51,0.00,,,0.00,Rainwise IP-100,2013-01-24 09:08:00,
2013-01-24 04:14:00,7.5,-6.0,30.11,WNW,292,7.7,13.3,51,0.00,,,0.00,Rainwise IP-100,2013-01-24 09:14:00,
2013-01-24 04:19:00,7.4,-6.0,30.11,NNW,337,12.4,14.5,51,0.00,,,0.00,Rainwise IP-100,2013-01-24 09:19:00,
2013-01-24 04:24:00,7.4,-6.0,30.11,NNW,337,2.6,12.4,52,0.00,,,0.00,Rainwise IP-100,2013-01-24 09:24:00,
2013-01-24 04:29:00,7.3,-6.0,30.11,WNW,292,13.3,15.2,51,0.00,,,0.00,Rainwise IP-100,2013-01-24 09:29:00,
2013-01-24 04:34:00,7.3,-6.0,30.11,WNW,292,1.2,14.7,50,0.00,,,0.00,Rainwise IP-100,2013-01-24 09:34:00,
2013-01-24 04:39:00,7.3,-6.0,30.11,NNW,337,8.2,17.0,50,0.00,,,0.00,Rainwise IP-100,2013-01-24 09:39:00,
2013-01-24 04:44:00,7.3,-6.0,30.11,WNW,292,18.0,18.7,51,0.00,,,0.00,Rainwise IP-100,2013-01-24 09:44:00,
2013-01-24 04:49:00,7.3,-6.0,30.11,WNW,292,5.4,18.0,51,0.00,,,0.00,Rainwise IP-100,2013-01-24 09:49:00,
2013-01-24 04:54:00,7.1,-6.0,30.12,NNW,337,7.9,11.0,51,0.00,,,0.00,Rainwise IP-100,2013-01-24 09:54:00,
2013-01-24 04:59:00,6.9,-6.0,30.11,WNW,292,12.6,12.6,51,0.00,,,0.00,Rainwise IP-100,2013-01-24 09:59:00,
2013-01-24 05:04:00,7.0,-6.0,30.11,NNW,337,4.0,12.6,51,0.00,,,0.00,Rainwise IP-100,2013-01-24 10:04:00,
2013-01-24 05:09:00,7.1,-6.0,30.11,NNW,337,2.3,12.6,51,0.00,,,0.00,Rainwise IP-100,2013-01-24 10:09:00,
2013-01-24 05:14:00,7.1,-6.0,30.11,NNW,337,6.8,9.6,51,0.00,,,0.00,Rainwise IP-100,2013-01-24 10:14:00,
2013-01-24 05:19:00,7.0,-6.0,30.11,ENE,67,0.0,10.0,51,0.00,,,0.00,Rainwise IP-100,2013-01-24 10:19:00,
2013-01-24 05:24:00,6.9,-6.0,30.12,WNW,292,3.7,10.7,51,0.00,,,0.00,Rainwise IP-100,2013-01-24 10:24:00,
2013-01-24 05:29:00,6.9,-6.0,30.12,WNW,292,9.3,14.5,51,0.00,,,0.00,Rainwise IP-100,2013-01-24 10:29:00,
2013-01-24 05:34:00,6.9,-6.0,30.12,WNW,292,11.0,16.6,51,0.00,,,0.00,Rainwise IP-100,2013-01-24 10:34:00,
2013-01-24 05:39:00,6.9,-6.0,30.12,NNW,337,7.5,14.0,50,0.00,,,0.00,Rainwise IP-100,2013-01-24 10:39:00,
2013-01-24 05:44:00,6.9,-6.0,30.12,WNW,292,6.3,11.2,49,0.00,,,0.00,Rainwise IP-100,2013-01-24 10:44:00,
2013-01-24 05:49:00,6.9,-6.0,30.12,NW,315,14.7,14.9,49,0.00,,,0.00,Rainwise IP-100,2013-01-24 10:49:00,
2013-01-24 05:54:00,7.0,-6.0,30.12,NNW,337,5.1,18.4,49,0.00,,,0.00,Rainwise IP-100,2013-01-24 10:54:00,
2013-01-24 05:59:00,6.9,-6.0,30.12,NW,315,7.0,13.5,49,0.00,,,0.00,Rainwise IP-100,2013-01-24 10:59:00,
2013-01-24 06:04:00,6.8,-6.0,30.11,WNW,292,14.0,16.1,49,0.00,,,0.00,Rainwise IP-100,2013-01-24 11:04:00,
2013-01-24 06:09:00,6.8,-6.0,30.12,NW,315,9.3,14.0,49,0.00,,,0.00,Rainwise IP-100,2013-01-24 11:09:00,
2013-01-24 06:14:00,6.8,-6.0,30.12,WNW,292,9.6,11.2,50,0.00,,,0.00,Rainwise IP-100,2013-01-24 11:14:00,
2013-01-24 06:19:00,6.9,-6.0,30.13,NNW,337,11.2,13.5,51,0.00,,,0.00,Rainwise IP-100,2013-01-24 11:19:00,
2013-01-24 06:24:00,6.8,-6.0,30.12,WNW,292,8.4,11.9,51,0.00,,,0.00,Rainwise IP-100,2013-01-24 11:24:00,
2013-01-24 06:29:00,6.7,-6.0,30.12,WNW,292,14.0,15.9,51,0.00,,,0.00,Rainwise IP-100,2013-01-24 11:29:00,
2013-01-24 06:34:00,6.7,-6.0,30.12,NNW,337,9.1,15.2,51,0.00,,,0.00,Rainwise IP-100,2013-01-24 11:34:00,
2013-01-24 06:39:00,6.7,-6.0,30.12,NW,315,14.0,14.0,52,0.00,,,0.00,Rainwise IP-100,2013-01-24 11:39:00,
2013-01-24 06:44:00,6.7,-6.0,30.12,WNW,292,5.6,14.0,53,0.00,,,0.00,Rainwise IP-100,2013-01-24 11:44:00,
2013-01-24 06:49:00,6.7,-6.0,30.11,WNW,292,15.9,18.2,53,0.00,,,0.00,Rainwise IP-100,2013-01-24 11:49:00,
2013-01-24 06:54:00,6.7,-6.0,30.12,NNW,337,3.0,15.9,52,0.00,,,0.00,Rainwise IP-100,2013-01-24 11:54:00,
2013-01-24 06:59:00,6.6,-6.0,30.12,NNW,337,4.0,18.2,51,0.00,,,0.00,Rainwise IP-100,2013-01-24 11:59:00,
2013-01-24 07:04:00,6.7,-6.0,30.13,WNW,292,3.3,13.3,51,0.00,,,0.00,Rainwise IP-100,2013-01-24 12:04:00,
2013-01-24 07:09:00,6.6,-6.0,30.12,NW,315,7.5,16.1,52,0.00,,,0.00,Rainwise IP-100,2013-01-24 12:09:00,
2013-01-24 07:14:00,6.4,-6.0,30.12,WNW,292,10.0,15.2,52,0.00,,,0.00,Rainwise IP-100,2013-01-24 12:14:00,
2013-01-24 07:19:00,6.4,-6.0,30.12,WNW,292,9.1,12.8,52,0.00,,,0.00,Rainwise IP-100,2013-01-24 12:19:00,
2013-01-24 07:24:00,6.3,-6.0,30.12,WNW,292,8.2,13.1,52,0.00,,,0.00,Rainwise IP-100,2013-01-24 12:24:00,
2013-01-24 07:29:00,6.3,-6.0,30.12,WNW,292,9.1,10.7,52,0.00,,,0.00,Rainwise IP-100,2013-01-24 12:29:00,
2013-01-24 07:34:00,6.4,-6.0,30.13,NNW,337,10.5,11.7,52,0.00,,,0.00,Rainwise IP-100,2013-01-24 12:34:00,
2013-01-24 07:39:00,6.5,-6.0,30.12,WSW,247,1.2,18.2,51,0.00,,,0.00,Rainwise IP-100,2013-01-24 12:39:00,
2013-01-24 07:44:00,6.6,-6.0,30.12,WNW,292,10.7,19.1,51,0.00,,,0.00,Rainwise IP-100,2013-01-24 12:44:00,
2013-01-24 07:49:00,6.7,-6.0,30.12,WNW,292,3.5,15.9,51,0.00,,,0.00,Rainwise IP-100,2013-01-24 12:49:00,
2013-01-24 07:54:00,6.8,-6.0,30.13,WNW,292,11.2,22.2,51,0.00,,,0.00,Rainwise IP-100,2013-01-24 12:54:00,
2013-01-24 07:59:00,6.8,-6.0,30.13,NW,315,11.7,20.5,51,0.00,,,0.00,Rainwise IP-100,2013-01-24 12:59:00,
2013-01-24 08:04:00,6.8,-6.0,30.13,NW,315,15.9,15.9,50,0.00,,,0.00,Rainwise IP-100,2013-01-24 13:04:00,
2013-01-24 08:09:00,6.9,-6.0,30.13,NNW,337,4.4,20.1,50,0.00,,,0.00,Rainwise IP-100,2013-01-24 13:09:00,
2013-01-24 08:14:00,7.1,-6.0,30.12,WNW,292,15.9,15.9,50,0.00,,,0.00,Rainwise IP-100,2013-01-24 13:14:00,
2013-01-24 08:19:00,7.2,-6.0,30.13,WNW,292,15.4,15.9,51,0.00,,,0.00,Rainwise IP-100,2013-01-24 13:19:00,
2013-01-24 08:24:00,7.2,-6.0,30.12,NNW,337,11.2,22.2,50,0.00,,,0.00,Rainwise IP-100,2013-01-24 13:24:00,
2013-01-24 08:29:00,7.2,-6.0,30.12,NW,315,11.9,18.4,50,0.00,,,0.00,Rainwise IP-100,2013-01-24 13:29:00,
2013-01-24 08:34:00,7.3,-6.0,30.13,NNW,337,12.6,17.7,50,0.00,,,0.00,Rainwise IP-100,2013-01-24 13:34:00,
2013-01-24 08:39:00,7.5,-6.0,30.12,NW,315,13.8,20.3,50,0.00,,,0.00,Rainwise IP-100,2013-01-24 13:39:00,
2013-01-24 08:44:00,7.6,-6.0,30.13,WNW,292,8.9,19.4,49,0.00,,,0.00,Rainwise IP-100,2013-01-24 13:44:00,
2013-01-24 08:49:00,7.7,-6.0,30.12,WNW,292,15.2,20.1,48,0.00,,,0.00,Rainwise IP-100,2013-01-24 13:49:00,
2013-01-24 08:54:00,7.7,-6.0,30.11,NNW,337,9.1,19.1,48,0.00,,,0.00,Rainwise IP-100,2013-01-24 13:54:00,
2013-01-24 08:59:00,7.7,-6.0,30.12,WNW,292,17.5,22.4,47,0.00,,,0.00,Rainwise IP-100,2013-01-24 13:59:00,
2013-01-24 09:04:00,7.8,-6.0,30.12,WNW,292,20.3,24.5,47,0.00,,,0.00,Rainwise IP-100,2013-01-24 14:04:00,
2013-01-24 09:09:00,7.8,-6.0,30.12,NW,315,13.1,20.8,47,0.00,,,0.00,Rainwise IP-100,2013-01-24 14:09:00,
2013-01-24 09:14:00,8.0,-6.0,30.12,NNW,337,11.2,16.6,47,0.00,,,0.00,Rainwise IP-100,2013-01-24 14:14:00,
2013-01-24 09:19:00,8.2,-6.0,30.11,WNW,292,12.8,20.5,47,0.00,,,0.00,Rainwise IP-100,2013-01-24 14:19:00,
2013-01-24 09:24:00,8.3,-6.0,30.11,NNW,337,19.1,20.5,47,0.00,,,0.00,Rainwise IP-100,2013-01-24 14:24:00,
2013-01-24 09:29:00,8.5,-6.0,30.11,WNW,292,14.7,20.5,47,0.00,,,0.00,Rainwise IP-100,2013-01-24 14:29:00,
2013-01-24 09:34:00,8.7,-6.0,30.11,WNW,292,11.2,17.0,46,0.00,,,0.00,Rainwise IP-100,2013-01-24 14:34:00,
2013-01-24 09:39:00,8.7,-6.0,30.11,WNW,292,7.9,18.4,46,0.00,,,0.00,Rainwise IP-100,2013-01-24 14:39:00,
2013-01-24 09:44:00,8.8,-6.0,30.11,WNW,292,9.3,18.2,46,0.00,,,0.00,Rainwise IP-100,2013-01-24 14:44:00,
2013-01-24 09:49:00,9.0,-6.0,30.11,NNW,337,7.2,16.8,46,0.00,,,0.00,Rainwise IP-100,2013-01-24 14:49:00,
2013-01-24 09:54:00,9.2,-6.0,30.11,NNW,337,4.7,16.6,46,0.00,,,0.00,Rainwise IP-100,2013-01-24 14:54:00,
2013-01-24 09:59:00,9.4,-6.0,30.11,WNW,292,11.0,14.9,46,0.00,,,0.00,Rainwise IP-100,2013-01-24 14:59:00,
2013-01-24 10:04:00,9.7,-6.0,30.11,WNW,292,11.2,17.0,45,0.00,,,0.00,Rainwise IP-100,2013-01-24 15:04:00,
2013-01-24 10:09:00,10.1,-6.0,30.11,NW,315,8.2,13.3,45,0.00,,,0.00,Rainwise IP-100,2013-01-24 15:09:00,
2013-01-24 10:14:00,10.5,-6.0,30.11,NNW,337,10.0,15.4,45,0.00,,,0.00,Rainwise IP-100,2013-01-24 15:14:00,
2013-01-24 10:19:00,10.5,-6.0,30.10,NNW,337,4.7,17.7,45,0.00,,,0.00,Rainwise IP-100,2013-01-24 15:19:00,
2013-01-24 10:24:00,10.4,-6.0,30.11,WNW,292,4.4,18.2,45,0.00,,,0.00,Rainwise IP-100,2013-01-24 15:24:00,
2013-01-24 10:29:00,10.6,-6.0,30.11,NNW,337,4.9,15.2,45,0.00,,,0.00,Rainwise IP-100,2013-01-24 15:29:00,
2013-01-24 10:34:00,10.9,-6.0,30.11,NNW,337,5.4,18.4,44,0.00,,,0.00,Rainwise IP-100,2013-01-24 15:34:00,
2013-01-24 10:39:00,11.1,-6.0,30.10,WNW,292,11.9,17.3,44,0.00,,,0.00,Rainwise IP-100,2013-01-24 15:39:00,
2013-01-24 10:44:00,11.2,-6.0,30.10,WNW,292,9.1,17.7,44,0.00,,,0.00,Rainwise IP-100,2013-01-24 15:44:00,
2013-01-24 10:49:00,11.6,0.0,30.10,NW,315,8.4,13.5,44,0.00,,,0.00,Rainwise IP-100,2013-01-24 15:49:00,
2013-01-24 10:54:00,12.0,0.0,30.10,NNW,337,12.6,16.8,45,0.00,,,0.00,Rainwise IP-100,2013-01-24 15:54:00,
2013-01-24 10:59:00,12.3,0.0,30.09,WNW,292,17.3,19.4,44,0.00,,,0.00,Rainwise IP-100,2013-01-24 15:59:00,
2013-01-24 11:04:00,12.3,-6.0,30.10,NNW,337,8.4,19.4,43,0.00,,,0.00,Rainwise IP-100,2013-01-24 16:04:00,
2013-01-24 11:09:00,12.3,-6.0,30.09,NNW,337,10.5,17.5,43,0.00,,,0.00,Rainwise IP-100,2013-01-24 16:09:00,
2013-01-24 11:14:00,12.5,-6.0,30.10,NNW,337,5.4,20.1,43,0.00,,,0.00,Rainwise IP-100,2013-01-24 16:14:00,
2013-01-24 11:19:00,12.8,-6.0,30.09,NNW,337,5.8,19.4,42,0.00,,,0.00,Rainwise IP-100,2013-01-24 16:19:00,
2013-01-24 11:24:00,13.1,-6.0,30.09,NNW,337,12.4,18.2,42,0.00,,,0.00,Rainwise IP-100,2013-01-24 16:24:00,
2013-01-24 11:29:00,13.4,-6.0,30.09,NNW,337,5.4,16.8,42,0.00,,,0.00,Rainwise IP-100,2013-01-24 16:29:00,
2013-01-24 11:34:00,13.5,-6.0,30.08,WNW,292,11.0,18.4,42,0.00,,,0.00,Rainwise IP-100,2013-01-24 16:34:00,
2013-01-24 11:39:00,13.8,-6.0,30.08,WNW,292,7.7,17.3,42,0.00,,,0.00,Rainwise IP-100,2013-01-24 16:39:00,
2013-01-24 11:44:00,14.1,-6.0,30.08,WNW,292,6.1,21.9,41,0.00,,,0.00,Rainwise IP-100,2013-01-24 16:44:00,
2013-01-24 11:49:00,14.1,-6.0,30.08,WNW,292,13.3,19.8,41,0.00,,,0.00,Rainwise IP-100,2013-01-24 16:49:00,
2013-01-24 11:54:00,14.4,-6.0,30.08,NNW,337,0.0,17.3,41,0.00,,,0.00,Rainwise IP-100,2013-01-24 16:54:00,
2013-01-24 11:59:00,14.7,0.0,30.08,NW,315,7.9,19.6,41,0.00,,,0.00,Rainwise IP-100,2013-01-24 16:59:00,
2013-01-24 12:04:00,14.8,0.0,30.07,NNW,337,11.9,20.3,41,0.00,,,0.00,Rainwise IP-100,2013-01-24 17:04:00,
2013-01-24 12:09:00,14.8,0.0,30.08,WNW,292,11.4,20.5,39,0.00,,,0.00,Rainwise IP-100,2013-01-24 17:09:00,
2013-01-24 12:14:00,15.0,0.0,30.06,NNW,337,3.5,18.9,39,0.00,,,0.00,Rainwise IP-100,2013-01-24 17:14:00,
2013-01-24 12:19:00,15.4,0.0,30.07,NNW,337,23.8,23.8,39,0.00,,,0.00,Rainwise IP-100,2013-01-24 17:19:00,
2013-01-24 12:24:00,15.5,0.0,30.07,NNW,337,11.2,25.4,39,0.00,,,0.00,Rainwise IP-100,2013-01-24 17:24:00,
2013-01-24 12:29:00,15.5,0.0,30.07,WNW,292,15.4,25.9,39,0.00,,,0.00,Rainwise IP-100,2013-01-24 17:29:00,
2013-01-24 12:34:00,15.7,0.0,30.06,NNW,337,14.5,26.6,39,0.00,,,0.00,Rainwise IP-100,2013-01-24 17:34:00,
2013-01-24 12:39:00,15.9,0.0,30.07,NNW,337,8.6,16.3,39,0.00,,,0.00,Rainwise IP-100,2013-01-24 17:39:00,
2013-01-24 12:44:00,16.2,0.0,30.07,NNW,337,6.8,22.9,39,0.00,,,0.00,Rainwise IP-100,2013-01-24 17:44:00,
2013-01-24 12:49:00,16.1,-6.0,30.06,WNW,292,17.5,22.4,38,0.00,,,0.00,Rainwise IP-100,2013-01-24 17:49:00,
2013-01-24 12:54:00,16.1,-6.0,30.06,NW,315,19.8,22.9,38,0.00,,,0.00,Rainwise IP-100,2013-01-24 17:54:00,
2013-01-24 12:59:00,16.4,-6.0,30.05,WNW,292,19.1,28.2,38,0.00,,,0.00,Rainwise IP-100,2013-01-24 17:59:00,
2013-01-24 13:04:00,16.6,0.0,30.06,WNW,292,15.4,21.7,38,0.00,,,0.00,Rainwise IP-100,2013-01-24 18:04:00,
2013-01-24 13:09:00,16.7,0.0,30.06,NNW,337,11.4,22.9,37,0.00,,,0.00,Rainwise IP-100,2013-01-24 18:09:00,
2013-01-24 13:14:00,16.9,0.0,30.06,WNW,292,11.0,16.1,38,0.00,,,0.00,Rainwise IP-100,2013-01-24 18:14:00,
2013-01-24 13:19:00,17.0,0.0,30.06,NNW,337,11.2,19.8,38,0.00,,,0.00,Rainwise IP-100,2013-01-24 18:19:00,
2013-01-24 13:24:00,17.0,0.0,30.05,WNW,292,10.3,21.2,38,0.00,,,0.00,Rainwise IP-100,2013-01-24 18:24:00,
2013-01-24 13:29:00,17.2,0.0,30.06,WNW,292,13.1,17.5,38,0.00,,,0.00,Rainwise IP-100,2013-01-24 18:29:00,
2013-01-24 13:34:00,17.6,0.0,30.06,NNW,337,8.4,18.7,38,0.00,,,0.00,Rainwise IP-100,2013-01-24 18:34:00,
2013-01-24 13:39:00,18.0,0.0,30.07,WNW,292,18.0,19.4,37,0.00,,,0.00,Rainwise IP-100,2013-01-24 18:39:00,
2013-01-24 13:44:00,18.0,0.0,30.07,WNW,292,14.0,18.9,37,0.00,,,0.00,Rainwise IP-100,2013-01-24 18:44:00,
2013-01-24 13:49:00,17.9,0.0,30.06,WNW,292,20.8,20.8,37,0.00,,,0.00,Rainwise IP-100,2013-01-24 18:49:00,
2013-01-24 13:54:00,18.1,0.0,30.07,NW,315,6.3,20.8,36,0.00,,,0.00,Rainwise IP-100,2013-01-24 18:54:00,
2013-01-24 13:59:00,18.6,0.0,30.06,WNW,292,19.4,21.9,36,0.00,,,0.00,Rainwise IP-100,2013-01-24 18:59:00,
2013-01-24 14:04:00,18.6,0.0,30.06,NNW,337,7.7,26.3,36,0.00,,,0.00,Rainwise IP-100,2013-01-24 19:04:00,
2013-01-24 14:09:00,18.4,0.0,30.07,NW,315,9.6,20.5,35,0.00,,,0.00,Rainwise IP-100,2013-01-24 19:09:00,
2013-01-24 14:14:00,18.6,0.0,30.06,NNW,337,7.0,21.9,35,0.00,,,0.00,Rainwise IP-100,2013-01-24 19:14:00,
2013-01-24 14:19:00,18.8,0.0,30.06,North,360,14.5,21.0,35,0.00,,,0.00,Rainwise IP-100,2013-01-24 19:19:00,
2013-01-24 14:24:00,18.8,0.0,30.04,WNW,292,24.0,28.7,35,0.00,,,0.00,Rainwise IP-100,2013-01-24 19:24:00,
2013-01-24 14:29:00,18.8,0.0,30.08,WNW,292,19.4,27.3,34,0.00,,,0.00,Rainwise IP-100,2013-01-24 19:29:00,
2013-01-24 14:34:00,18.7,0.0,30.06,NNW,337,18.4,22.4,34,0.00,,,0.00,Rainwise IP-100,2013-01-24 19:34:00,
2013-01-24 14:39:00,18.6,0.0,30.07,NNE,22,1.6,25.9,33,0.00,,,0.00,Rainwise IP-100,2013-01-24 19:39:00,
2013-01-24 14:45:00,18.7,0.0,30.08,WNW,292,7.2,26.1,33,0.00,,,0.00,Rainwise IP-100,2013-01-24 19:45:00,
2013-01-24 14:50:00,18.8,0.0,30.08,WNW,292,12.1,22.2,33,0.00,,,0.00,Rainwise IP-100,2013-01-24 19:50:00,
2013-01-24 14:55:00,19.0,0.0,30.08,WNW,292,10.3,21.2,34,0.00,,,0.00,Rainwise IP-100,2013-01-24 19:55:00,
2013-01-24 15:00:00,19.2,0.0,30.08,NNW,337,5.4,23.6,34,0.00,,,0.00,Rainwise IP-100,2013-01-24 20:00:00,
2013-01-24 15:05:00,19.2,0.0,30.08,WNW,292,14.5,20.3,34,0.00,,,0.00,Rainwise IP-100,2013-01-24 20:05:00,
2013-01-24 15:10:00,19.1,0.0,30.07,WNW,292,5.4,21.9,33,0.00,,,0.00,Rainwise IP-100,2013-01-24 20:10:00,
2013-01-24 15:15:00,19.1,0.0,30.08,North,360,5.1,18.9,33,0.00,,,0.00,Rainwise IP-100,2013-01-24 20:15:00,
2013-01-24 15:20:00,19.2,0.0,30.08,WNW,292,9.8,20.5,33,0.00,,,0.00,Rainwise IP-100,2013-01-24 20:20:00,
2013-01-24 15:25:00,19.2,0.0,30.08,WNW,292,15.2,20.8,32,0.00,,,0.00,Rainwise IP-100,2013-01-24 20:25:00,
2013-01-24 15:30:00,19.2,0.0,30.08,WNW,292,12.1,18.0,32,0.00,,,0.00,Rainwise IP-100,2013-01-24 20:30:00,
2013-01-24 15:35:00,19.3,0.0,30.08,WNW,292,11.9,18.7,33,0.00,,,0.00,Rainwise IP-100,2013-01-24 20:35:00,
2013-01-24 15:40:00,19.3,0.0,30.08,SW,225,6.3,23.1,33,0.00,,,0.00,Rainwise IP-100,2013-01-24 20:40:00,
2013-01-24 15:45:00,19.3,0.0,30.08,NW,315,12.8,19.6,32,0.00,,,0.00,Rainwise IP-100,2013-01-24 20:45:00,
2013-01-24 15:50:00,19.4,0.0,30.08,WNW,292,4.4,23.3,32,0.00,,,0.00,Rainwise IP-100,2013-01-24 20:50:00,
2013-01-24 15:55:00,19.4,0.0,30.08,NW,315,4.4,17.7,32,0.00,,,0.00,Rainwise IP-100,2013-01-24 20:55:00,
2013-01-24 16:00:00,19.3,0.0,30.09,WNW,292,5.8,18.0,32,0.00,,,0.00,Rainwise IP-100,2013-01-24 21:00:00,
2013-01-24 16:05:00,19.3,0.0,30.09,WNW,292,7.5,15.6,33,0.00,,,0.00,Rainwise IP-100,2013-01-24 21:05:00,
2013-01-24 16:10:00,19.3,0.0,30.09,NNW,337,9.6,15.9,33,0.00,,,0.00,Rainwise IP-100,2013-01-24 21:10:00,
2013-01-24 16:15:00,19.3,0.0,30.10,WNW,292,3.5,15.6,33,0.00,,,0.00,Rainwise IP-100,2013-01-24 21:15:00,
2013-01-24 16:20:00,19.2,0.0,30.09,WNW,292,12.6,19.4,33,0.00,,,0.00,Rainwise IP-100,2013-01-24 21:20:00,
2013-01-24 16:25:00,19.2,0.0,30.10,WNW,292,12.4,18.0,33,0.00,,,0.00,Rainwise IP-100,2013-01-24 21:25:00,
2013-01-24 16:30:00,19.1,0.0,30.10,WNW,292,3.0,22.2,33,0.00,,,0.00,Rainwise IP-100,2013-01-24 21:30:00,
2013-01-24 16:35:00,19.2,0.0,30.09,WNW,292,12.4,24.7,33,0.00,,,0.00,Rainwise IP-100,2013-01-24 21:35:00,
2013-01-24 16:40:00,19.2,0.0,30.10,WNW,292,16.6,20.8,32,0.00,,,0.00,Rainwise IP-100,2013-01-24 21:40:00,
2013-01-24 16:45:00,19.2,0.0,30.10,WNW,292,12.4,16.8,32,0.00,,,0.00,Rainwise IP-100,2013-01-24 21:45:00,
2013-01-24 16:50:00,19.1,0.0,30.10,WNW,292,12.4,20.1,32,0.00,,,0.00,Rainwise IP-100,2013-01-24 21:50:00,
2013-01-24 16:55:00,19.2,0.0,30.10,WNW,292,12.4,20.1,32,0.00,,,0.00,Rainwise IP-100,2013-01-24 21:55:00,
2013-01-24 17:00:00,19.2,0.0,30.10,WNW,292,9.8,19.6,32,0.00,,,0.00,Rainwise IP-100,2013-01-24 22:00:00,
2013-01-24 17:05:00,19.0,0.0,30.11,NNW,337,9.8,9.8,33,0.00,,,0.00,Rainwise IP-100,2013-01-24 22:05:00,
2013-01-24 17:10:00,18.7,0.0,30.12,WNW,292,5.6,12.1,34,0.00,,,0.00,Rainwise IP-100,2013-01-24 22:10:00,
2013-01-24 17:15:00,18.5,0.0,30.12,WNW,292,8.4,18.2,35,0.00,,,0.00,Rainwise IP-100,2013-01-24 22:15:00,
2013-01-24 17:20:00,18.5,0.0,30.12,WNW,292,7.7,20.5,35,0.00,,,0.00,Rainwise IP-100,2013-01-24 22:20:00,
2013-01-24 17:25:00,18.4,0.0,30.12,WNW,292,16.8,16.8,35,0.00,,,0.00,Rainwise IP-100,2013-01-24 22:25:00,
2013-01-24 17:30:00,18.3,0.0,30.13,NW,315,8.2,21.7,35,0.00,,,0.00,Rainwise IP-100,2013-01-24 22:30:00,
2013-01-24 17:35:00,18.4,-6.0,30.13,WNW,292,10.3,16.1,34,0.00,,,0.00,Rainwise IP-100,2013-01-24 22:35:00,
2013-01-24 17:40:00,18.3,0.0,30.14,WNW,292,2.8,15.2,35,0.00,,,0.00,Rainwise IP-100,2013-01-24 22:40:00,
2013-01-24 17:45:00,18.3,0.0,30.14,WNW,292,14.0,18.4,35,0.00,,,0.00,Rainwise IP-100,2013-01-24 22:45:00,
2013-01-24 17:50:00,18.3,0.0,30.13,NNW,337,18.4,20.8,35,0.00,,,0.00,Rainwise IP-100,2013-01-24 22:50:00,
2013-01-24 17:55:00,18.3,0.0,30.14,WNW,292,11.4,20.1,35,0.00,,,0.00,Rainwise IP-100,2013-01-24 22:55:00,
2013-01-24 18:00:00,18.2,0.0,30.14,NW,315,20.1,20.1,35,0.00,,,0.00,Rainwise IP-100,2013-01-24 23:00:00,
2013-01-24 18:05:00,18.2,0.0,30.14,WNW,292,11.9,20.1,35,0.00,,,0.00,Rainwise IP-100,2013-01-24 23:05:00,
2013-01-24 18:10:00,18.1,0.0,30.14,NNW,337,4.7,17.0,36,0.00,,,0.00,Rainwise IP-100,2013-01-24 23:10:00,
2013-01-24 18:15:00,18.1,0.0,30.15,WNW,292,7.7,17.7,35,0.00,,,0.00,Rainwise IP-100,2013-01-24 23:15:00,
2013-01-24 18:20:00,18.0,0.0,30.15,WNW,292,16.6,18.4,35,0.00,,,0.00,Rainwise IP-100,2013-01-24 23:20:00,
2013-01-24 18:25:00,17.9,0.0,30.14,WNW,292,15.2,19.1,35,0.00,,,0.00,Rainwise IP-100,2013-01-24 23:25:00,
2013-01-24 18:30:00,17.9,0.0,30.15,NNW,337,7.0,21.0,35,0.00,,,0.00,Rainwise IP-100,2013-01-24 23:30:00,
2013-01-24 18:35:00,17.9,0.0,30.16,WNW,292,6.3,15.4,35,0.00,,,0.00,Rainwise IP-100,2013-01-24 23:35:00,
2013-01-24 18:40:00,17.9,0.0,30.16,WNW,292,16.6,18.4,36,0.00,,,0.00,Rainwise IP-100,2013-01-24 23:40:00,
2013-01-24 18:45:00,17.9,0.0,30.16,WNW,292,17.5,19.8,35,0.00,,,0.00,Rainwise IP-100,2013-01-24 23:45:00,
2013-01-24 18:50:00,17.9,0.0,30.16,WNW,292,11.7,18.0,35,0.00,,,0.00,Rainwise IP-100,2013-01-24 23:50:00,
2013-01-24 18:55:00,17.8,0.0,30.15,WNW,292,14.2,14.9,36,0.00,,,0.00,Rainwise IP-100,2013-01-24 23:55:00,
2013-01-24 19:00:00,17.7,0.0,30.16,NNW,337,12.1,17.7,36,0.00,,,0.00,Rainwise IP-100,2013-01-25 00:00:00,
2013-01-24 19:05:00,17.6,0.0,30.16,WNW,292,16.3,25.2,36,0.00,,,0.00,Rainwise IP-100,2013-01-25 00:05:00,
2013-01-24 19:10:00,17.6,0.0,30.15,WNW,292,13.5,24.0,36,0.00,,,0.00,Rainwise IP-100,2013-01-25 00:10:00,
2013-01-24 19:15:00,17.6,0.0,30.15,WNW,292,12.1,18.9,35,0.00,,,0.00,Rainwise IP-100,2013-01-25 00:15:00,
2013-01-24 19:20:00,17.6,0.0,30.16,WNW,292,14.5,17.3,36,0.00,,,0.00,Rainwise IP-100,2013-01-25 00:20:00,
2013-01-24 19:25:00,17.5,0.0,30.16,WNW,292,11.0,15.9,36,0.00,,,0.00,Rainwise IP-100,2013-01-25 00:25:00,
2013-01-24 19:30:00,17.5,0.0,30.16,WNW,292,11.4,15.4,37,0.00,,,0.00,Rainwise IP-100,2013-01-25 00:30:00,
2013-01-24 19:35:00,17.4,0.0,30.15,NW,315,12.4,15.9,37,0.00,,,0.00,Rainwise IP-100,2013-01-25 00:35:00,
2013-01-24 19:40:00,17.4,0.0,30.16,WNW,292,11.2,13.8,37,0.00,,,0.00,Rainwise IP-100,2013-01-25 00:40:00,
2013-01-24 19:45:00,17.4,0.0,30.16,WNW,292,11.7,19.4,37,0.00,,,0.00,Rainwise IP-100,2013-01-25 00:45:00,
2013-01-24 19:50:00,17.5,0.0,30.16,WNW,292,2.6,15.9,37,0.00,,,0.00,Rainwise IP-100,2013-01-25 00:50:00,
2013-01-24 19:55:00,17.4,0.0,30.16,WNW,292,7.7,21.7,37,0.00,,,0.00,Rainwise IP-100,2013-01-25 00:55:00,
2013-01-24 20:00:00,17.4,0.0,30.16,WNW,292,10.0,17.5,37,0.00,,,0.00,Rainwise IP-100,2013-01-25 01:00:00,
2013-01-24 20:05:00,17.3,0.0,30.17,WNW,292,10.7,19.4,38,0.00,,,0.00,Rainwise IP-100,2013-01-25 01:05:00,
2013-01-24 20:10:00,17.3,0.0,30.17,WNW,292,12.1,18.7,38,0.00,,,0.00,Rainwise IP-100,2013-01-25 01:10:00,
2013-01-24 20:15:00,17.1,0.0,30.17,WSW,247,4.4,17.0,37,0.00,,,0.00,Rainwise IP-100,2013-01-25 01:15:00,
2013-01-24 20:20:00,16.9,0.0,30.17,NNW,337,9.1,22.2,38,0.00,,,0.00,Rainwise IP-100,2013-01-25 01:20:00,
2013-01-24 20:25:00,16.8,0.0,30.17,WNW,292,14.0,19.4,38,0.00,,,0.00,Rainwise IP-100,2013-01-25 01:25:00,
2013-01-24 20:30:00,16.7,0.0,30.17,SW,225,2.8,21.5,38,0.00,,,0.00,Rainwise IP-100,2013-01-25 01:30:00,
2013-01-24 20:35:00,16.6,0.0,30.16,WNW,292,15.4,18.7,38,0.00,,,0.00,Rainwise IP-100,2013-01-25 01:35:00,
2013-01-24 20:40:00,16.5,0.0,30.17,NNW,337,9.8,21.5,39,0.00,,,0.00,Rainwise IP-100,2013-01-25 01:40:00,
2013-01-24 20:45:00,16.5,0.0,30.17,WNW,292,13.3,25.9,38,0.00,,,0.00,Rainwise IP-100,2013-01-25 01:45:00,
2013-01-24 20:50:00,16.4,-6.0,30.17,WNW,292,15.4,20.1,38,0.00,,,0.00,Rainwise IP-100,2013-01-25 01:50:00,
2013-01-24 20:55:00,16.3,-6.0,30.18,WNW,292,11.7,24.2,37,0.00,,,0.00,Rainwise IP-100,2013-01-25 01:55:00,
2013-01-24 21:00:00,16.2,-6.0,30.18,WNW,292,8.4,18.0,37,0.00,,,0.00,Rainwise IP-100,2013-01-25 02:00:00,
2013-01-24 21:05:00,16.0,-6.0,30.18,WNW,292,13.8,21.0,38,0.00,,,0.00,Rainwise IP-100,2013-01-25 02:05:00,
2013-01-24 21:10:00,15.9,-6.0,30.18,WNW,292,12.6,23.8,37,0.00,,,0.00,Rainwise IP-100,2013-01-25 02:10:00,
2013-01-24 21:15:00,15.8,-6.0,30.18,WNW,292,12.4,20.8,37,0.00,,,0.00,Rainwise IP-100,2013-01-25 02:15:00,
2013-01-24 21:20:00,15.7,-6.0,30.18,WNW,292,16.6,25.2,38,0.00,,,0.00,Rainwise IP-100,2013-01-25 02:20:00,
2013-01-24 21:25:00,15.5,-6.0,30.19,WNW,292,6.8,19.6,38,0.00,,,0.00,Rainwise IP-100,2013-01-25 02:25:00,
2013-01-24 21:30:00,15.5,0.0,30.18,WNW,292,16.1,22.6,39,0.00,,,0.00,Rainwise IP-100,2013-01-25 02:30:00,
2013-01-24 21:35:00,15.5,-6.0,30.19,NW,315,9.8,23.6,38,0.00,,,0.00,Rainwise IP-100,2013-01-25 02:35:00,
2013-01-24 21:40:00,15.4,-6.0,30.19,NNW,337,12.1,16.1,38,0.00,,,0.00,Rainwise IP-100,2013-01-25 02:40:00,
2013-01-24 21:45:00,15.2,-6.0,30.18,WNW,292,12.8,19.8,38,0.00,,,0.00,Rainwise IP-100,2013-01-25 02:45:00,
2013-01-24 21:50:00,15.1,0.0,30.19,NW,315,12.1,17.5,39,0.00,,,0.00,Rainwise IP-100,2013-01-25 02:50:00,
2013-01-24 21:55:00,15.0,0.0,30.19,WNW,292,7.9,15.6,39,0.00,,,0.00,Rainwise IP-100,2013-01-25 02:55:00,
2013-01-24 22:00:00,14.8,0.0,30.19,WNW,292,14.7,18.9,40,0.00,,,0.00,Rainwise IP-100,2013-01-25 03:00:00,
2013-01-24 22:05:00,14.7,0.0,30.19,WNW,292,10.0,19.4,40,0.00,,,0.00,Rainwise IP-100,2013-01-25 03:05:00,
2013-01-24 22:10:00,14.6,0.0,30.19,WNW,292,14.0,20.3,40,0.00,,,0.00,Rainwise IP-100,2013-01-25 03:10:00,
2013-01-24 22:15:00,14.6,0.0,30.20,WNW,292,3.5,20.3,40,0.00,,,0.00,Rainwise IP-100,2013-01-25 03:15:00,
2013-01-24 22:20:00,14.6,0.0,30.19,WNW,292,9.1,20.5,40,0.00,,,0.00,Rainwise IP-100,2013-01-25 03:20:00,
2013-01-24 22:25:00,14.5,0.0,30.20,WNW,292,7.9,18.4,40,0.00,,,0.00,Rainwise IP-100,2013-01-25 03:25:00,
2013-01-24 22:30:00,14.4,-6.0,30.19,WNW,292,9.1,19.4,40,0.00,,,0.00,Rainwise IP-100,2013-01-25 03:30:00,
2013-01-24 22:35:00,14.2,-6.0,30.19,NNW,337,15.6,22.6,40,0.00,,,0.00,Rainwise IP-100,2013-01-25 03:35:00,
2013-01-24 22:40:00,14.1,-6.0,30.20,WNW,292,13.1,15.6,41,0.00,,,0.00,Rainwise IP-100,2013-01-25 03:40:00,
2013-01-24 22:45:00,14.0,-6.0,30.20,WNW,292,2.3,17.0,41,0.00,,,0.00,Rainwise IP-100,2013-01-25 03:45:00,
2013-01-24 22:50:00,14.0,-6.0,30.21,WNW,292,9.6,17.3,40,0.00,,,0.00,Rainwise IP-100,2013-01-25 03:50:00,
2013-01-24 22:55:00,13.9,-6.0,30.21,WNW,292,6.3,21.0,41,0.00,,,0.00,Rainwise IP-100,2013-01-25 03:55:00,
2013-01-24 23:00:00,13.9,-6.0,30.21,NNW,337,13.1,17.0,41,0.00,,,0.00,Rainwise IP-100,2013-01-25 04:00:00,
2013-01-24 23:05:00,13.8,-6.0,30.21,WNW,292,11.0,18.0,41,0.00,,,0.00,Rainwise IP-100,2013-01-25 04:05:00,
2013-01-24 23:10:00,13.8,-6.0,30.21,WNW,292,11.4,14.0,42,0.00,,,0.00,Rainwise IP-100,2013-01-25 04:10:00,
2013-01-24 23:15:00,13.7,-6.0,30.21,WNW,292,7.9,20.1,42,0.00,,,0.00,Rainwise IP-100,2013-01-25 04:15:00,
2013-01-24 23:20:00,13.7,-6.0,30.21,WSW,247,3.7,14.9,42,0.00,,,0.00,Rainwise IP-100,2013-01-25 04:20:00,
2013-01-24 23:25:00,13.7,-6.0,30.21,WNW,292,11.7,17.7,41,0.00,,,0.00,Rainwise IP-100,2013-01-25 04:25:00,
2013-01-24 23:30:00,13.7,-6.0,30.22,WNW,292,11.4,24.0,41,0.00,,,0.00,Rainwise IP-100,2013-01-25 04:30:00,
2013-01-24 23:35:00,13.6,-6.0,30.21,WNW,292,4.9,17.5,41,0.00,,,0.00,Rainwise IP-100,2013-01-25 04:35:00,
2013-01-24 23:40:00,13.5,-6.0,30.21,WNW,292,11.4,16.8,42,0.00,,,0.00,Rainwise IP-100,2013-01-25 04:40:00,
2013-01-24 23:45:00,13.4,-6.0,30.21,WNW,292,11.4,17.0,42,0.00,,,0.00,Rainwise IP-100,2013-01-25 04:45:00,
2013-01-24 23:50:00,13.4,-6.0,30.22,WNW,292,11.2,17.5,43,0.00,,,0.00,Rainwise IP-100,2013-01-25 04:50:00,
2013-01-24 23:55:00,13.3,-6.0,30.22,WNW,292,6.5,14.2,43,0.00,,,0.00,Rainwise IP-100,2013-01-25 04:55:00,